Weather History for Frankfort, MI

Change the Weather History Date:

Wednesday, October 10, 2012

  Actual Average (KTVC) Record (KTVC)
Temperature  
Mean Temperature 46 °F 50 °F  
Max Temperature 49 °F 60 °F 86 °F (1949)
Min Temperature 44 °F 41 °F 25 °F (1952)
Degree Days  
Heating Degree Days 18 15  
Month to date heating degree days 134  
Since 1 July heating degree days 396  
Cooling Degree Days 0 0  
Month to date cooling degree days 0  
Year to date cooling degree days 407  
Moisture  
Dew Point 30 °F    
Average Humidity 55    
Maximum Humidity 71    
Minimum Humidity 36    
Precipitation  
Precipitation 0.00 in 0.10 in 1.42 in (1932)
Month to date precipitation 1.06  
Year to date precipitation 25.70  
Sea Level Pressure  
Sea Level Pressure 29.91 in    
Wind  
Wind Speed 13 mph (WNW)    
Max Wind Speed 18 mph    
Max Gust Speed 30 mph    
Visibility 10 miles    
Events      
T = Trace of Precipitation, MM = Missing Value Source: NWS Daily Summary

Daily Weather History Graph

Daily Weather History Graph

Search for Another Location

Airport:

Trip Planner

Search our weather history database for the weather conditions in past years. The results will help you decide how hot, cold, wet, or windy it might be!

Date:

Astronomy

Oct. 10, 2012 Rise Set
Actual Time 7:54 AM EDT 7:08 PM EDT
Civil Twilight 7:25 AM EDT 7:37 PM EDT
Nautical Twilight 6:51 AM EDT 8:11 PM EDT
Astronomical Twilight 6:17 AM EDT 8:44 PM EDT
Moon 2:17 AM EDT (10/10) 4:21 PM EDT (10/10)
Length of Visible Light 12h 12m
Length of Day
11h 13m
Waning Crescent, 27% of the Moon is Illuminated
Oct 10
Waning Crescent
Oct 15
New
Oct 21
First Quarter
Oct 29
Full
Nov 6
Last Quarter

Hourly Weather History & Observations

Time (EDT) Temp. Windchill Dew Point Humidity Pressure Visibility Wind Dir Wind Speed Gust Speed Precip Events Conditions
12:13 AM 48.6 °F - 39.4 °F 71% 29.77 in 10.0 mi West 13.8 mph 19.6 mph N/A   Overcast
12:33 AM 48.7 °F - 38.7 °F 68% 29.77 in 10.0 mi WNW 13.8 mph 18.4 mph N/A   Overcast
12:53 AM 49.1 °F - 38.3 °F 66% 29.77 in 10.0 mi WNW 11.5 mph 20.7 mph N/A   Overcast
1:13 AM 49.1 °F - 37.8 °F 65% 29.77 in 10.0 mi WNW 11.5 mph 17.3 mph N/A   Overcast
1:33 AM 49.1 °F - 38.1 °F 66% 29.77 in 10.0 mi WNW 13.8 mph - N/A   Overcast
1:53 AM 49.1 °F - 37.8 °F 65% 29.77 in 10.0 mi WNW 16.1 mph 21.9 mph N/A   Overcast
2:14 AM 48.6 °F - 36.3 °F 63% 29.77 in 10.0 mi WNW 12.7 mph 21.9 mph N/A   Mostly Cloudy
2:34 AM 48.4 °F - 36.0 °F 62% 29.77 in 10.0 mi NW 13.8 mph 21.9 mph N/A   Mostly Cloudy
2:54 AM 48.4 °F - 36.3 °F 63% 29.77 in 10.0 mi WNW 10.4 mph 20.7 mph N/A   Mostly Cloudy
3:14 AM 48.2 °F - 35.8 °F 62% 29.77 in 10.0 mi WNW 13.8 mph 18.4 mph N/A   Scattered Clouds
3:34 AM 47.8 °F - 36.7 °F 65% 29.77 in 10.0 mi WNW 11.5 mph - N/A   Scattered Clouds
3:54 AM 47.5 °F - 36.7 °F 66% 29.77 in 10.0 mi NW 12.7 mph - N/A   Mostly Cloudy
4:14 AM 47.3 °F - 36.0 °F 65% 29.78 in 10.0 mi WNW 9.2 mph 12.7 mph N/A   Mostly Cloudy
4:34 AM 46.9 °F - 36.3 °F 67% 29.78 in 10.0 mi WNW 11.5 mph 17.3 mph N/A   Mostly Cloudy
4:54 AM 46.9 °F - 36.0 °F 66% 29.78 in 10.0 mi WNW 11.5 mph 19.6 mph N/A   Mostly Cloudy
5:15 AM 46.6 °F - 36.1 °F 67% 29.78 in 10.0 mi WNW 13.8 mph - N/A   Overcast
5:35 AM 46.4 °F 40.1 °F 35.8 °F 67% 29.79 in 10.0 mi NW 15.0 mph 21.9 mph N/A   Mostly Cloudy
5:55 AM 46.0 °F 39.6 °F 33.6 °F 62% 29.79 in 10.0 mi NW 15.0 mph 19.6 mph N/A   Mostly Cloudy
6:15 AM 45.5 °F 38.3 °F 33.6 °F 63% 29.80 in 10.0 mi NW 17.3 mph 25.3 mph N/A   Overcast
6:35 AM 45.3 °F 38.1 °F 33.3 °F 63% 29.81 in 10.0 mi NW 17.3 mph 21.9 mph N/A   Overcast
6:55 AM 45.3 °F 38.4 °F 33.8 °F 64% 29.82 in 10.0 mi WNW 16.1 mph 23.0 mph N/A   Overcast
7:15 AM 45.5 °F 39.2 °F 32.9 °F 61% 29.82 in 10.0 mi NW 13.8 mph 19.6 mph N/A   Overcast
7:35 AM 45.0 °F 38.2 °F 32.9 °F 63% 29.82 in 10.0 mi NW 15.0 mph 25.3 mph N/A   Overcast
7:55 AM 45.0 °F 37.4 °F 32.9 °F 63% 29.83 in 10.0 mi WNW 18.4 mph 26.5 mph N/A   Overcast
8:15 AM 44.4 °F 37.5 °F 31.8 °F 61% 29.84 in 10.0 mi NW 15.0 mph 27.6 mph N/A   Overcast
8:35 AM 44.2 °F 37.3 °F 31.5 °F 61% 29.85 in 10.0 mi NW 15.0 mph 20.7 mph N/A   Overcast
8:56 AM 44.2 °F 37.3 °F 31.8 °F 62% 29.86 in 10.0 mi NW 15.0 mph 27.6 mph N/A   Overcast
9:11 AM 44.2 °F 37.0 °F 31.6 °F 61% 29.87 in 10.0 mi NW 16.1 mph 21.9 mph N/A   Overcast
9:31 AM 44.1 °F 36.2 °F 31.3 °F 61% 29.87 in 10.0 mi NW 18.4 mph 25.3 mph N/A   Overcast
9:51 AM 44.2 °F 38.0 °F 31.3 °F 60% 29.88 in 10.0 mi NW 12.7 mph 25.3 mph N/A   Overcast
10:11 AM 44.2 °F 38.0 °F 30.9 °F 60% 29.88 in 10.0 mi NW 12.7 mph 23.0 mph N/A   Overcast
10:31 AM 44.4 °F 38.2 °F 31.6 °F 61% 29.89 in 10.0 mi NW 12.7 mph 25.3 mph N/A   Overcast
10:51 AM 44.6 °F 37.8 °F 31.1 °F 59% 29.89 in 10.0 mi NW 15.0 mph 24.2 mph N/A   Overcast
11:11 AM 44.6 °F 37.8 °F 31.3 °F 60% 29.89 in 10.0 mi WNW 15.0 mph 24.2 mph N/A   Overcast
11:31 AM 45.0 °F 38.5 °F 30.9 °F 58% 29.90 in 10.0 mi NW 13.8 mph 25.3 mph N/A   Overcast
11:52 AM 45.0 °F 38.9 °F 31.8 °F 60% 29.91 in 10.0 mi WNW 12.7 mph - N/A   Overcast
12:12 PM 45.5 °F 38.9 °F 30.9 °F 57% 29.92 in 10.0 mi NW 15.0 mph 23.0 mph N/A   Overcast
12:32 PM 45.5 °F 38.6 °F 31.1 °F 57% 29.93 in 10.0 mi WNW 16.1 mph 25.3 mph N/A   Overcast
12:52 PM 45.7 °F 39.5 °F 30.4 °F 55% 29.93 in 10.0 mi NW 13.8 mph - N/A   Overcast
1:32 PM 45.7 °F 39.5 °F 30.6 °F 56% 29.94 in 10.0 mi WNW 13.8 mph 23.0 mph N/A   Overcast
1:52 PM 45.1 °F 39.1 °F 30.7 °F 57% 29.94 in 10.0 mi WNW 12.7 mph 19.6 mph N/A   Overcast
2:12 PM 45.3 °F 39.3 °F 30.2 °F 56% 29.94 in 10.0 mi WNW 12.7 mph 18.4 mph N/A   Overcast
2:33 PM 44.8 °F 38.7 °F 29.5 °F 55% 29.95 in 10.0 mi West 12.7 mph 20.7 mph N/A   Overcast
2:53 PM 45.1 °F 38.1 °F 29.3 °F 54% 29.95 in 10.0 mi WNW 16.1 mph 21.9 mph N/A   Overcast
3:13 PM 44.8 °F 38.3 °F 29.1 °F 54% 29.95 in 10.0 mi West 13.8 mph 21.9 mph N/A   Overcast
3:33 PM 45.0 °F 38.2 °F 29.3 °F 54% 29.96 in 10.0 mi WNW 15.0 mph 20.7 mph N/A   Overcast
3:53 PM 45.5 °F 38.9 °F 28.4 °F 51% 29.97 in 10.0 mi WNW 15.0 mph 23.0 mph N/A   Overcast
4:13 PM - - - N/A% - - North - - N/A   Unknown
4:33 PM 45.3 °F 38.4 °F 28.2 °F 51% 29.98 in 10.0 mi WNW 16.1 mph 29.9 mph N/A   Overcast
5:13 PM 45.7 °F 38.6 °F 23.5 °F 42% 29.98 in 10.0 mi West 17.3 mph 25.3 mph N/A   Overcast
5:34 PM 47.1 °F - 23.5 °F 40% 29.99 in 10.0 mi WNW 15.0 mph 23.0 mph N/A   Overcast
5:54 PM 46.4 °F 39.5 °F 23.7 °F 41% 30.00 in 10.0 mi WNW 17.3 mph 24.2 mph N/A   Overcast
6:14 PM 46.0 °F 41.0 °F 25.3 °F 44% 30.01 in 10.0 mi WNW 10.4 mph 19.6 mph N/A   Overcast
6:34 PM 45.9 °F 40.4 °F 25.7 °F 45% 30.02 in 10.0 mi NW 11.5 mph - N/A   Overcast
6:54 PM 45.7 °F 39.5 °F 24.3 °F 43% 30.02 in 10.0 mi NW 13.8 mph - N/A   Mostly Cloudy
7:34 PM 46.4 °F 41.5 °F 21.0 °F 37% 30.04 in 10.0 mi WNW 10.4 mph 20.7 mph N/A   Mostly Cloudy
7:54 PM 46.0 °F 41.4 °F 21.7 °F 38% 30.05 in 10.0 mi WNW 9.2 mph 20.7 mph N/A   Mostly Cloudy
8:14 PM 46.4 °F 41.9 °F 21.4 °F 37% 30.06 in 10.0 mi WNW 9.2 mph 13.8 mph N/A   Mostly Cloudy
8:35 PM 46.4 °F 41.1 °F 20.7 °F 36% 30.06 in 10.0 mi WNW 11.5 mph 21.9 mph N/A   Mostly Cloudy
8:55 PM 46.0 °F 41.4 °F 22.8 °F 40% 30.06 in 10.0 mi NW 9.2 mph - N/A   Mostly Cloudy
9:15 PM 46.6 °F - 21.0 °F 36% 30.07 in 10.0 mi WNW 12.7 mph 18.4 mph N/A   Mostly Cloudy
9:35 PM 46.9 °F - 21.6 °F 37% 30.07 in 10.0 mi WNW 10.4 mph 19.6 mph N/A   Mostly Cloudy
9:55 PM 46.8 °F - 21.4 °F 37% 30.07 in 10.0 mi WNW 9.2 mph 18.4 mph N/A   Overcast
10:15 PM 46.8 °F - 22.6 °F 39% 30.07 in 10.0 mi West 8.1 mph - N/A   Overcast
10:35 PM 46.8 °F - 21.9 °F 37% 30.08 in 10.0 mi West 9.2 mph 18.4 mph N/A   Mostly Cloudy
10:55 PM 46.4 °F 40.7 °F 22.8 °F 39% 30.08 in 10.0 mi WNW 12.7 mph 17.3 mph N/A   Scattered Clouds
11:15 PM 46.6 °F - 24.1 °F 41% 30.08 in 10.0 mi WNW 9.2 mph - N/A   Mostly Cloudy
11:36 PM 47.3 °F - 24.1 °F 40% 30.08 in 10.0 mi West 8.1 mph - N/A   Mostly Cloudy
11:56 PM 46.8 °F - 24.6 °F 42% 30.08 in 10.0 mi West 3.5 mph - N/A   Scattered Clouds